Regional Weather Roundup
Issued by NWS

Home | Current Version | Previous Version | Graphics & Text | Print | Product List | Glossary On
Versions: 1 2 3 4 5 6 7 8 9 10 11 12 13 14 15 16 17 18 19 20 21 22 23 24 25 26 27 28 29 30 31 32 33 34 35 36 37 38 39 40 41 42 43 44 45 46 47 48 49 50
000
ASUS43 KDTX 192010
RWRMI
MICHIGAN HOURLY REGIONAL WEATHER ROUNDUP
NATIONAL WEATHER SERVICE DETROIT/PONTIAC MI
300 PM EST FRI DEC 19 2014

NOTE: "FAIR" INDICATES FEW OR NO CLOUDS BELOW 12,000 FEET WITH NO
SIGNIFICANT WEATHER AND/OR OBSTRUCTION TO VISIBILITY.

MIZ047>049-052>055-059>063-066>070-074>076-081>083-192100-
SOUTHEAST LOWER MICHIGAN

CITY           SKY/WX    TMP DP  RH WIND       PRES   REMARKS
ADRIAN         CLOUDY    30  22  72 W3        30.25S
ALMA           SUNNY     30  19  64 CALM      30.25F
ANN ARBOR      CLOUDY    28  22  78 VRB6      30.24F
BAD AXE        MOSUNNY   29  21  73 N3        30.25S
DETROIT CITY   PTSUNNY   34  19  54 CALM      30.25F
DETROIT        CLOUDY    29  20  69 CALM      30.26F
FLINT          MOSUNNY   32  20  61 SW3       30.25S
GROSSE ILE     CLOUDY    28  21  74 N6        30.25S
HILLSDALE      CLOUDY    30  24  79 SE5       30.22R
HOWELL         PTSUNNY   27  20  75 W3        30.23F

CITY           SKY/WX    TMP DP  RH WIND       PRES   REMARKS
JACKSON        CLOUDY    28  22  78 SW3       30.23S
LAMBERTVILLE   CLOUDY    32  25  74 CALM      30.25R
LANSING        MOSUNNY   27  19  72 SW3       30.25F
LAPEER         NOT AVBL
MASON          CLOUDY    26  20  78 CALM      30.24F
MONROE         CLOUDY    30  25  80 CALM      30.24S
MT. CLEMENS    MOSUNNY   31  21  66 VRB3      30.23F
PONTIAC        MOSUNNY   30  18  60 W3        30.22F
PORT HOPE        N/A     29  21  72 NW6       30.23F
PORT HURON     PTSUNNY   32  21  64 N6        30.24S
TRI CITIES     SUNNY     31  18  58 S3        30.26S
YPSILANTI      CLOUDY    31  21  66 N8        30.26S
$$
MIZ043>046-050>051-056>058-064>065-071>073-077>080-192100-
SOUTHWEST LOWER MICHIGAN

CITY           SKY/WX    TMP DP  RH WIND       PRES   REMARKS
BATTLE CREEK   CLOUDY    31  21  66 CALM      30.24S
BENTON HARBOR  CLOUDY    31  24  75 NW6       30.25F
BIG RAPIDS     SUNNY     31  20  64 CALM      30.22F
COLDWATER      CLOUDY    29  26  87 MISG      30.23R
HOLLAND        MOSUNNY   34  21  59 CALM      30.26S
GRAND RAPIDS   MOSUNNY   32  20  61 S3        30.24F
KALAMAZOO      MOSUNNY   32  21  64 CALM      30.24S
MARSHALL       CLOUDY    29  21  73 CALM      30.23S
MUSKEGON       SUNNY     34  17  50 NW5       30.25F
$$
MIZ016>042-192100-
NORTHERN LOWER MICHIGAN

CITY           SKY/WX    TMP DP  RH WIND       PRES   REMARKS
ALPENA         SUNNY     29  19  66 CALM      30.25S
BEAVER ISLAND  MOSUNNY   27  20  75 NW5       30.26S
BELLAIRE       CLOUDY    28  21  74 CALM      30.27R
CADILLAC       SUNNY     26  20  76 CALM      30.21R
CHARLEVOIX     MOSUNNY   27  21  76 NW3       30.29R
FRANKFORT      CLOUDY    31  23  73 NW3       30.26S
GAYLORD        SUNNY     26  15  63 CALM      30.20S
GRAYLING       SUNNY     28  18  66 NW5       30.22F
HARBOR SPRINGS SUNNY     28  21  75 CALM      30.25S
HOUGHTON LAKE  SUNNY     26  18  71 SW6       30.22F
MANISTEE       MOSUNNY   30  19  64 N3        30.27S
OSCODA         SUNNY     28  20  71 NE3       30.24F
PELLSTON       SUNNY     29  18  63 CALM      30.26S
TRAVERSE CITY  PTSUNNY   29  21  72 W3        30.25S
$$
MIZ007>008-015-192100-
EASTERN UPPER MICHIGAN

CITY           SKY/WX    TMP DP  RH WIND       PRES   REMARKS
KINROSS        SUNNY     30  18  59 CALM      30.25R
MACKINAC ISLAN SUNNY     27  15  61 CALM      30.25S
NEWBERRY       MOSUNNY   26  20  78 N5        30.23F
S. S. MARIE    MOSUNNY   25  12  58 SE5       30.23F
$$
MIZ004>006-011>014-085-192100-
CENTRAL UPPER MICHIGAN

CITY           SKY/WX    TMP DP  RH WIND       PRES   REMARKS
MANISTIQUE     MOSUNNY   30  22  72 CALM      30.25S
ESCANABA       CLOUDY    28  19  69 CALM      30.26F
MENOMINEE      CLOUDY    30  21  69 E3        30.26F
SAWYER-GWINN   CLOUDY    28  21  74 CALM      30.22S
$$
MIZ001>003-009>011-084-192100-
WESTERN UPPER MICHIGAN

CITY           SKY/WX    TMP DP  RH WIND       PRES   REMARKS
IRON MOUNTAIN  CLOUDY    26  19  74 CALM      30.23F
HOUGHTON       CLOUDY    27  18  69 S6        30.21F
COPPER HARBOR    N/A     31  21  66 S3        30.23F
IRONWOOD       CLOUDY    23  18  80 S6        30.18S
$$

ABBREVIATIONS USED IN REMARKS
   TC - TEMPERATURE IN CELSIUS
  WCI - WIND CHILL INDEX
   HX - HEAT INDEX
  VSB - VISIBILITY




USA.gov is the U.S. government's official web portal to all federal, state and local government web resources and services.